Fairbanks Ft. Wainwright, AK

4:19 AM AKDT on July 29, 2017 (GMT -0800)
Ladd Army Air Field

Weather History for PAFB - February, 2014

Change the Weather History Date:

Sunday, February 2, 2014

  Actual Average Record
Temperature  
Mean Temperature 10 °F -  
Max Temperature 18 °F 2 °F 26 °F (2007)
Min Temperature 3 °F -9 °F -47 °F (2005)
Degree Days  
Heating Degree Days 54    
Moisture  
Dew Point 11 °F    
Average Humidity 85    
Maximum Humidity 92    
Minimum Humidity 79    
Precipitation  
Precipitation 0.00 in - - ()
Sea Level Pressure  
Sea Level Pressure 30.62 in    
Wind  
Wind Speed 1 mph (ENE)    
Max Wind Speed 9 mph    
Max Gust Speed -    
Visibility 9 miles    
Events      
Averages and records for this station are not official NWS values.
T = Trace of Precipitation, MM = Missing Value Source: NWS Daily Summary

Daily Weather History Graph

Daily Weather History Graph

Search for Another Location

Airport or City:

Trip Planner

Search our weather history database for the weather conditions in past years. The results will help you decide how hot, cold, wet, or windy it might be!

Date:

Astronomy

Feb. 02, 2014 Rise Set
Actual Time 9:32 AM AKST 4:37 PM AKST
Civil Twilight 8:33 AM AKST 5:35 PM AKST
Nautical Twilight 7:33 AM AKST 6:36 PM AKST
Astronomical Twilight 6:36 AM AKST 7:33 PM AKST
Moon 9:28 AM AKST (2/2) 10:21 PM AKST (2/2)
Length of Visible Light 9h 01m
Length of Day
7h 05m
Waxing Crescent, 12% of the Moon is Illuminated
Feb 2
Waxing Crescent
Feb 6
First Quarter
Feb 14
Full
Feb 22
Last Quarter
Feb 28
New

Hourly Weather History & Observations

Time (AKST) Temp. Windchill Dew Point Humidity Pressure Visibility Wind Dir Wind Speed Gust Speed Precip Events Conditions
12:56 AM 16.0 °F - 12.0 °F 84% 30.62 in 10.0 mi Calm Calm - N/A   Overcast
1:56 AM 16.0 °F - 12.0 °F 84% 30.63 in 10.0 mi Calm Calm - N/A   Overcast
2:56 AM 16.0 °F - 12.0 °F 84% 30.64 in 10.0 mi Calm Calm - N/A   Overcast
3:36 AM 15.8 °F 10.2 °F 10.4 °F 79% 30.61 in 10.0 mi West 3.5 mph - N/A   Overcast
3:56 AM 15.1 °F - 10.9 °F 84% 30.64 in 10.0 mi Calm Calm - N/A   Overcast
4:56 AM 15.1 °F - 10.9 °F 84% 30.64 in 10.0 mi Calm Calm - N/A   Overcast
5:27 AM 15.8 °F - 12.2 °F 86% 30.60 in 10.0 mi Calm Calm - N/A   Overcast
5:56 AM 15.1 °F - 12.0 °F 88% 30.63 in 10.0 mi Calm Calm - N/A   Overcast
6:14 AM 15.8 °F - 12.2 °F 86% 30.60 in 10.0 mi Calm Calm - N/A   Overcast
6:56 AM 16.0 °F - 12.0 °F 84% 30.63 in 10.0 mi Calm Calm - N/A   Overcast
7:24 AM 17.6 °F - 12.2 °F 79% 30.59 in 10.0 mi Calm Calm - N/A   Overcast
7:46 AM 17.6 °F - 12.2 °F 79% 30.59 in 10.0 mi Calm Calm - N/A   Overcast
7:56 AM 17.1 °F - 12.9 °F 84% 30.63 in 10.0 mi Calm Calm - N/A   Overcast
8:56 AM 16.0 °F - 12.9 °F 88% 30.63 in 10.0 mi Calm Calm - N/A   Overcast
9:56 AM 15.1 °F - 10.9 °F 84% 30.64 in 10.0 mi Calm Calm - N/A   Overcast
10:56 AM 17.1 °F - 12.9 °F 84% 30.63 in 10.0 mi Calm Calm - N/A   Overcast
11:56 AM 18.0 °F - 14.0 °F 84% 30.64 in 8.0 mi Calm Calm - N/A   Overcast
12:30 PM 17.6 °F - 14.0 °F 86% 30.60 in 6.2 mi Calm Calm - N/A   Scattered Clouds
12:56 PM 17.1 °F - 14.0 °F 88% 30.64 in 8.0 mi Calm Calm - N/A   Clear
1:56 PM 15.1 °F - 12.0 °F 88% 30.63 in 8.0 mi Calm Calm - N/A   Clear
2:56 PM 12.0 °F - 9.0 °F 88% 30.63 in 10.0 mi Calm Calm - N/A   Clear
3:56 PM 12.9 °F - 10.9 °F 92% 30.61 in 6.0 mi Calm Calm - N/A   Clear
4:56 PM 10.0 °F 3.6 °F 6.1 °F 84% 30.62 in 6.0 mi NE 3.5 mph - N/A   Clear
5:56 PM 17.1 °F 6.6 °F 12.9 °F 84% 30.60 in 10.0 mi ENE 8.1 mph - N/A   Clear
6:56 PM 16.0 °F 4.4 °F 12.0 °F 84% 30.61 in 10.0 mi East 9.2 mph - N/A   Clear
7:56 PM 14.0 °F 2.9 °F 10.9 °F 88% 30.61 in 10.0 mi East 8.1 mph - N/A   Clear
8:56 PM 16.0 °F 7.4 °F 12.0 °F 84% 30.61 in 10.0 mi East 5.8 mph - N/A   Clear
9:56 PM 16.0 °F 6.3 °F 10.9 °F 81% 30.61 in 10.0 mi East 6.9 mph - N/A   Clear
10:56 PM 3.9 °F - 1.0 °F 88% 30.62 in 10.0 mi Calm Calm - N/A   Clear
11:56 PM 3.9 °F -6.9 °F -0.9 °F 80% 30.62 in 10.0 mi ENE 5.8 mph - N/A   Clear